Regional Weather Roundup
Issued by NWS

Home | Current Version | Previous Version | Text Only | Print | Product List | Glossary Off
Versions: 1 2 3 4 5 6 7 8 9 10 11 12 13 14 15 16 17 18 19 20 21 22 23 24 25 26 27 28 29 30 31 32 33 34 35 36 37 38 39 40 41 42 43 44 45 46 47 48 49 50

000
ASUS43 KIND 210709
RWRIN

WEATHER ROUNDUP FOR INDIANA
NATIONAL WEATHER SERVICE INDIANAPOLIS IN
300 AM EDT FRI JUL 21 2017

NOTE: "FAIR" INDICATES FEW OR NO CLOUDS BELOW 12,000 FEET WITH NO
SIGNIFICANT WEATHER AND/OR OBSTRUCTIONS TO VISIBILITY.

* - STATION DOES NOT REPORT WEATHER SUCH AS PRECIPITATION OR FOG.

+ - STATION NOT QUALITY CONTROLLED BY THE NATIONAL WEATHER SERVICE.
    USE DATA WITH CAUTION...ESPECIALLY DEWPOINT AND RELATIVE
    HUMIDITY OBSERVATIONS.

INZ001>003-010>013-019-020-210800-
NORTHWEST INDIANA

CITY           SKY/WX    TMP DP  RH WIND       PRES   REMARKS
GARY /AIRPORT/ PTCLDY    73  71  94 CALM      29.98R
KNOX *+          N/A     70  70 100 CALM      29.98R
LA PORTE +     CLOUDY    69  68  97 CALM      29.99R
MICHIGAN CITY+ FOG       68  68 100 CALM      29.98R VSB 1/2
MONTICELLO +   PTCLDY    77  75  95 CALM      29.95S
RENSSELAER +   PTCLDY    75  72  88 N6        29.97R
VALPARAISO     CLOUDY    74  71  91 CALM      29.98R

$$

LMZ046-743>745-210800-
SOUTHERN LAKE MICHIGAN

STATION/POSITION TIME  TEMP    WIND        PRES    WAVE
                       AIR SEA DIR/SP/G            HT
                 (UTC) (F)     (DEG/KT/KT) (MB)    (FT)
BURNS HARBOR     0640   75      70/  4/  5 1015.2S
MICHIGAN CITY    0640   73      50/  4/  4   N/A
5NW MICH CITY    0700   74 74   50/  4/  6   N/A     0

$$

INZ004-005-014>016-021>024-210800-
NORTH CENTRAL INDIANA

CITY           SKY/WX    TMP DP  RH WIND       PRES   REMARKS
GOSHEN         CLEAR     70  66  87 CALM      29.97S
LOGANSPORT +   CLOUDY    75  73  94 CALM      29.96S FOG
PERU/GRISSOM   CLEAR     77  77 100 CALM      29.95S
ROCHESTER +    CLEAR     77  77 100 CALM      29.97S FOG
SOUTH BEND     CLEAR     67  67 100 CALM      29.98R
WARSAW +       CLEAR     72  70  94 CALM      29.97S

$$

INZ006>009-017-018-025>027-210800-
NORTHEAST INDIANA

CITY           SKY/WX    TMP DP  RH WIND       PRES   REMARKS
ANGOLA *+      CLEAR     72  64  78 CALM      29.97S
AUBURN +       CLEAR     73  70  88 NW3       29.97F
FORT WAYNE     MOCLDY    75  73  93 CALM      29.96F
HUNTINGTON +   CLOUDY    76  74  96 CALM      29.95F
KENDALLVILLE + CLEAR    N/A N/A N/A CALM      29.98S

$$

INZ028-029-035-036-043>045-051>053-210800-
WEST CENTRAL INDIANA

CITY           SKY/WX    TMP DP  RH WIND       PRES   REMARKS
GREENCASTLE +  PTCLDY    77  72  83 CALM      29.98F
LAFAYETTE      MOCLDY    78  78 100 CALM      29.94F FOG
TERRE HAUTE    CLOUDY    80  73  79 SW6       29.96F

$$

INZ030>032-037>040-046>048-054>057-064-065-210800-
CENTRAL INDIANA

CITY           SKY/WX    TMP DP  RH WIND       PRES   REMARKS
CP ATTERBURY + PTCLDY    77  72  83 SW3       29.98S
FRANKFORT +    CLOUDY    79  77  93 SW5       29.97F
INDIANAPOLIS   PTCLDY    80  73  79 SW9       29.95F
-EAGLE CREEK   CLOUDY    80  73  79 SW6       29.96F
KOKOMO +       CLOUDY    78  76  93 W5        29.97S
MARION +       CLOUDY    77  75  94 CALM      29.97S
MT COMFORT *+  PTCLDY    79  73  83 SW6       29.99S
SHELBYVILLE    CLOUDY    78  74  87 S5        29.97F
ZIONSVILLE +   CLOUDY    77  74  92 CALM      29.98S

$$

INZ033-034-041-042-049-050-058-059-210800-
EAST CENTRAL INDIANA

CITY           SKY/WX    TMP DP  RH WIND       PRES   REMARKS
MUNCIE         CLOUDY    81  76  84 SW5       29.97F
RICHMOND +     CLOUDY    73  73 100 SW7       30.00F

$$

INZ060-061-067>069-081>083-085>088-210800-
SOUTHWEST INDIANA

CITY           SKY/WX    TMP DP  RH WIND       PRES   REMARKS
EVANSVILLE     CLOUDY    78  73  84 SW6       30.00F
HUNTINGBURG *+ PTCLDY    76  73  91 S5        30.00F

$$

INZ062-063-066-070>080-084-089>092-210800-
SOUTH CENTRAL AND SOUTHEAST INDIANA

CITY           SKY/WX    TMP DP  RH WIND       PRES   REMARKS
BEDFORD +      CLOUDY    77  72  83 CALM      29.99F
BLOOMINGTON    CLOUDY    79  72  79 SW9       29.99F
MADISON *+     PTCLDY    77  72  83 CALM      30.03S
NORTH VERNON + CLOUDY    75  72  88 S7        30.00F
SEYMOUR +      PTCLDY    77  73  88 S5        29.98F

$$





USA.gov is the U.S. government's official web portal to all federal, state and local government web resources and services.